Stations météo

Publicité
Lorient Lan Bihoue, France (7205): Température de l'air & dewpoint: 07.08.2020 12:00:00 - 13.08.2020 12:00:00 (CEST)Lorient Lan Bihoue, France (7205): Température de l'air 5cm: 07.08.2020 12:00:00 - 13.08.2020 12:00:00 (CEST)Lorient Lan Bihoue, France (7205): Température de l'air -20cm: 07.08.2020 12:00:00 - 13.08.2020 12:00:00 (CEST)Lorient Lan Bihoue, France (7205): Vitesse du vent & gusts: 07.08.2020 12:00:00 - 13.08.2020 12:00:00 (CEST)Lorient Lan Bihoue, France (7205): Direction du vent: 07.08.2020 12:00:00 - 13.08.2020 12:00:00 (CEST)Lorient Lan Bihoue, France (7205): reduced air pressure: 07.08.2020 12:00:00 - 13.08.2020 12:00:00 (CEST)Lorient Lan Bihoue, France (7205): visibility: 07.08.2020 12:00:00 - 13.08.2020 12:00:00 (CEST)Lorient Lan Bihoue, France (7205): Ensoleillement: 07.08.2020 12:00:00 - 13.08.2020 12:00:00 (CEST)Lorient Lan Bihoue, France (7205): Quantités de précipitations: 07.08.2020 12:00:00 - 13.08.2020 12:00:00 (CEST)
Date & Time tt [°C] td [°C] tt 5cm [°C] tt -20cm [°C] ff [km/h] ff [knt] fx [km/h] fx [knt] dd ppp [hPa] vv [km] sd [min] rr [mm]
13.08.2020 12:00:00 - - - - - - - - - - - - -
13.08.2020 11:00:00 - - - - - - - - - - - - -
13.08.2020 10:00:00 - - - - - - - - - - - - -
13.08.2020 09:00:00 - - - - - - - - - - - - -
13.08.2020 08:00:00 - - - - - - - - - - - - -
13.08.2020 07:00:00 - - - - - - - - - - - - -
13.08.2020 06:00:00 - - - - - - - - - - - - -
13.08.2020 05:00:00 - - - - - - - - - - - - -
13.08.2020 04:00:00 - - - - - - - - - - - - -
13.08.2020 03:00:00 - - - - - - - - - - - - -
13.08.2020 02:00:00 - - - - - - - - - - - - -
13.08.2020 01:00:00 - - - - - - - - - - - - -
13.08.2020 00:00:00 - - - - - - - - - - - - -
12.08.2020 23:00:00 - - - - - - - - - - - - -
12.08.2020 22:00:00 - - - - - - - - - - - - -
12.08.2020 21:00:00 - - - - - - - - - - - - -
12.08.2020 20:00:00 - - - - - - - - - - - - -
12.08.2020 19:00:00 - - - - - - - - - - - - -
12.08.2020 18:00:00 - - - - - - - - - - - - -
12.08.2020 17:00:00 - - - - - - - - - - - - -
12.08.2020 16:00:00 - - - - - - - - - - - - -
12.08.2020 15:00:00 - - - - - - - - - - - - -
12.08.2020 14:00:00 - - - - - - - - - - - - -
12.08.2020 13:00:00 - - - - - - - - - - - - -
12.08.2020 12:00:00 - - - - - - - - - - - - -
12.08.2020 11:00:00 - - - - - - - - - - - - -
12.08.2020 10:00:00 - - - - - - - - - - - - -
12.08.2020 09:00:00 - - - - - - - - - - - - -
12.08.2020 08:00:00 - - - - - - - - - - - - -
12.08.2020 07:00:00 - - - - - - - - - - - - -
12.08.2020 06:00:00 - - - - - - - - - - - - -
12.08.2020 05:00:00 - - - - - - - - - - - - -
12.08.2020 04:00:00 - - - - - - - - - - - - -
12.08.2020 03:00:00 - - - - - - - - - - - - -
12.08.2020 02:00:00 - - - - - - - - - - - - -
12.08.2020 01:00:00 - - - - - - - - - - - - -
12.08.2020 00:00:00 - - - - - - - - - - - - -
11.08.2020 23:00:00 - - - - - - - - - - - - -
11.08.2020 22:00:00 - - - - - - - - - - - - -
11.08.2020 21:00:00 - - - - - - - - - - - - -
11.08.2020 20:00:00 - - - - - - - - - - - - -
11.08.2020 19:00:00 24,3 17,8 29,2 22,1 14 8 24 13 WSW 1013,1 32 41 0,0
11.08.2020 18:00:00 25,5 17,4 33,9 22,0 15 8 26 14 WSW 1012,8 20 60 0,0
11.08.2020 17:00:00 25,8 17,7 34,5 21,8 13 7 23 13 SSW 1013,3 20 60 0,0
11.08.2020 16:00:00 26,1 17,5 35,0 21,7 10 6 23 12 S 1013,3 20 60 0,0
11.08.2020 15:00:00 26,4 17,7 34,3 21,5 16 8 28 15 SSE 1013,5 20 60 0,0
11.08.2020 14:00:00 27,0 16,9 27,9 21,4 19 10 31 17 S 1013,6 27 56 0,0
11.08.2020 13:00:00 25,2 17,9 27,9 21,3 18 10 28 15 SSE 1013,6 19 53 0,0
11.08.2020 12:00:00 27,0 18,8 31,8 21,3 15 8 26 14 SSE 1013,4 18 53 0,0
11.08.2020 11:00:00 25,7 18,4 - 21,3 12 6 27 14 ENE 1013,1 17 - -
11.08.2020 10:00:00 - - - - 16 9 29 16 ENE - 13 - -
11.08.2020 09:00:00 - - - - 13 7 21 11 ENE - 13 - -
11.08.2020 08:00:00 20,4 17,0 18,2 21,5 12 7 19 10 ENE 1013,0 12 27 -
11.08.2020 07:00:00 19,5 16,5 18,2 21,6 10 5 24 13 NE 1012,9 12 0 0,0
11.08.2020 06:00:00 20,2 16,8 19,0 21,7 10 5 19 11 NE 1012,8 12 0 0,0
11.08.2020 05:00:00 20,0 16,6 19,1 21,7 13 7 19 10 NNE 1012,8 12 0 0,0
11.08.2020 04:00:00 20,6 16,6 19,6 21,8 13 7 21 11 NE 1013,1 15 0 0,0
11.08.2020 03:00:00 21,1 16,5 19,8 21,9 13 7 19 10 NNE 1013,1 16 0 0,0
11.08.2020 02:00:00 21,1 16,5 19,0 22,0 10 5 14 7 NE 1013,3 18 0 0,0
11.08.2020 01:00:00 21,4 16,4 19,9 22,1 11 6 20 11 ENE 1013,2 18 0 0,0
11.08.2020 00:00:00 22,4 16,9 20,6 22,1 11 6 18 10 NNE 1013,4 20 0 0,0
10.08.2020 23:00:00 22,2 16,9 20,5 22,1 12 6 19 10 NNE 1013,3 19 0 0,0
10.08.2020 22:00:00 23,4 17,4 22,1 22,1 14 8 28 15 NNE 1013,0 22 0 0,0
10.08.2020 21:00:00 25,6 18,5 24,7 22,0 17 9 24 13 NNE 1012,5 23 27 0,0
10.08.2020 20:00:00 26,3 18,4 27,2 21,9 8 4 16 9 WNW 1012,3 20 23 0,0
10.08.2020 19:00:00 25,1 17,8 28,3 21,7 13 7 22 12 W 1012,4 22 3 0,0
10.08.2020 18:00:00 27,2 18,2 32,3 21,5 15 8 26 14 WSW 1012,4 32 60 0,0
10.08.2020 17:00:00 26,4 18,8 31,1 21,4 15 8 29 16 SW 1012,5 24 37 0,0
10.08.2020 16:00:00 32,0 18,2 34,8 21,2 9 5 24 13 S 1012,4 41 38 0,0
10.08.2020 15:00:00 30,9 17,9 39,3 21,0 8 4 30 16 NE 1012,4 31 60 0,0
10.08.2020 14:00:00 29,5 18,3 35,8 20,9 14 7 27 15 N 1012,5 26 60 0,0
10.08.2020 13:00:00 28,0 19,0 31,9 20,9 15 8 26 14 NNE 1012,5 19 60 0,0
10.08.2020 12:00:00 24,9 18,6 24,6 20,9 17 9 26 14 NNE 1012,8 16 47 0,0
10.08.2020 11:00:00 20,8 18,2 21,1 20,9 11 6 23 12 N 1013,4 13 0 0,0
10.08.2020 10:00:00 19,5 17,3 19,6 21,0 9 5 12 7 NNE 1014,0 12 0 0,0
10.08.2020 09:00:00 18,3 17,0 16,9 21,1 8 4 12 7 SSE 1014,2 8 0 0,0
10.08.2020 08:00:00 17,2 16,2 15,1 21,2 5 3 10 5 N 1013,4 7 0 -
10.08.2020 07:00:00 17,1 15,8 15,5 21,3 4 2 15 8 N 1013,4 9 - -
10.08.2020 06:00:00 17,8 15,4 16,1 21,4 9 5 16 9 NNE 1013,0 12 0 0,0
10.08.2020 05:00:00 17,4 14,7 16,4 21,5 13 7 23 13 NNE 1013,1 12 0 -
10.08.2020 04:00:00 17,5 14,8 17,0 21,6 16 9 28 15 NNE 1013,5 12 0 0,0
10.08.2020 03:00:00 18,1 15,0 17,5 21,7 14 8 32 17 NNE 1013,9 13 0 0,0
10.08.2020 02:00:00 18,6 15,3 17,8 21,8 18 10 29 15 NNE 1014,5 14 0 -
10.08.2020 01:00:00 19,9 15,5 18,9 21,8 17 9 29 15 NNE 1014,3 16 0 0,0
10.08.2020 00:00:00 21,0 16,0 20,1 21,8 18 10 34 18 NE 1014,6 19 0 0,0
09.08.2020 23:00:00 22,5 16,3 21,5 21,9 17 9 29 15 NNE 1014,6 23 0 0,0
09.08.2020 22:00:00 24,2 17,0 23,4 21,8 17 9 31 17 NNE 1014,4 27 0 -
09.08.2020 21:00:00 26,2 17,6 25,5 21,8 18 10 27 15 N 1014,1 31 19 0,0
09.08.2020 20:00:00 28,7 19,1 29,5 21,7 10 5 23 13 NW 1013,8 33 60 0,0
09.08.2020 19:00:00 26,2 16,4 27,9 21,5 22 12 33 18 WSW 1014,0 38 26 0,0
09.08.2020 18:00:00 27,7 15,0 34,3 21,3 20 11 29 16 WSW 1014,4 33 60 0,0
09.08.2020 17:00:00 28,9 13,9 38,3 21,1 19 11 27 14 WSW 1015,0 31 60 0,0
09.08.2020 16:00:00 27,8 18,2 38,1 20,9 16 9 27 15 WSW 1015,5 30 60 0,0
09.08.2020 15:00:00 27,1 17,8 35,3 20,7 20 11 31 17 SW 1016,3 31 58 0,0
09.08.2020 14:00:00 26,2 17,8 31,1 20,6 17 9 29 16 WSW 1016,8 32 49 0,0
09.08.2020 13:00:00 23,3 16,8 30,1 20,5 21 11 27 15 WSW 1017,1 32 43 0,0
09.08.2020 12:00:00 27,6 18,3 33,6 20,5 8 4 18 10 NNE 1017,0 42 60 0,0
09.08.2020 11:00:00 25,3 17,0 28,9 20,5 8 5 24 13 N 1017,2 20 60 0,0
09.08.2020 10:00:00 22,7 15,5 23,2 20,6 16 8 27 15 NNE 1017,3 60 60 0,0
09.08.2020 09:00:00 19,3 14,5 15,6 20,7 16 9 24 13 NNE 1017,6 60 57 0,0
09.08.2020 08:00:00 15,6 13,8 13,6 20,8 15 8 26 14 N 1017,4 38 26 0,0
09.08.2020 07:00:00 14,8 13,3 13,5 20,9 10 5 24 13 NNE 1018,0 31 0 0,0
09.08.2020 06:00:00 15,4 13,4 13,6 21,0 9 5 20 11 N 1018,3 42 0 0,0
09.08.2020 05:00:00 16,1 13,6 14,6 21,1 4 2 26 14 NW 1018,5 49 0 0,0
09.08.2020 04:00:00 16,5 14,0 14,5 21,2 11 6 26 14 N 1018,3 48 0 0,0
09.08.2020 03:00:00 16,1 13,8 13,9 21,4 8 5 15 8 N 1018,7 56 0 0,0
09.08.2020 02:00:00 17,1 14,0 15,6 21,4 11 6 21 12 N 1018,9 51 0 0,0
09.08.2020 01:00:00 18,2 15,1 17,0 21,5 11 6 22 12 N 1019,1 57 0 0,0
09.08.2020 00:00:00 19,6 15,9 18,2 21,5 12 7 24 13 N 1019,2 58 0 0,0
08.08.2020 23:00:00 21,7 15,8 20,7 21,6 16 9 35 19 N 1018,8 59 0 0,0
08.08.2020 22:00:00 23,6 15,4 22,5 21,5 13 7 26 14 N 1018,3 58 11 0,0
08.08.2020 21:00:00 26,3 15,4 25,3 21,5 14 7 26 14 N 1018,0 51 60 0,0
08.08.2020 20:00:00 28,5 15,1 28,7 21,4 16 9 29 16 N 1017,7 27 60 0,0
08.08.2020 19:00:00 30,1 15,0 32,2 21,2 16 9 36 19 NNW 1017,8 34 56 0,0
08.08.2020 18:00:00 30,6 15,8 35,2 21,1 16 9 33 18 NNW 1017,9 45 60 0,0
08.08.2020 17:00:00 30,9 16,5 37,6 20,9 16 9 31 17 NNW 1018,2 48 60 0,0
08.08.2020 16:00:00 31,1 17,0 38,5 20,7 14 7 33 18 N 1018,3 52 60 0,0
08.08.2020 15:00:00 30,5 17,6 38,2 20,5 16 9 29 16 N 1018,7 56 60 0,0
08.08.2020 14:00:00 29,5 16,7 36,6 20,4 15 8 30 16 N 1019,0 54 60 0,0
08.08.2020 13:00:00 29,0 16,2 35,2 20,3 16 9 31 17 N 1019,0 20 60 0,0
08.08.2020 12:00:00 27,6 16,9 32,0 20,2 16 9 33 18 N 1019,2 51 60 0,0
08.08.2020 11:00:00 25,7 16,5 28,6 20,2 16 9 34 18 N 1019,1 50 60 0,0
08.08.2020 10:00:00 23,4 16,2 25,1 20,3 16 9 29 16 N 1018,9 55 60 0,0
08.08.2020 09:00:00 21,0 16,0 19,1 20,4 13 7 27 15 N 1018,9 45 58 0,0
08.08.2020 08:00:00 18,6 15,8 17,0 20,5 17 9 33 18 N 1018,4 40 34 0,0
08.08.2020 07:00:00 18,0 15,4 16,7 20,6 13 7 29 16 N 1018,1 37 0 0,0
08.08.2020 06:00:00 17,8 15,2 16,4 20,6 11 6 26 14 N 1017,8 43 0 -
08.08.2020 05:00:00 18,1 15,4 14,5 20,7 7 4 15 8 N 1017,6 43 0 -
08.08.2020 04:00:00 18,4 14,3 15,6 20,8 7 4 28 15 NW 1017,7 55 0 0,0
08.08.2020 03:00:00 19,0 14,0 18,0 - 15 8 38 20 N - 19 0 0,0
08.08.2020 02:00:00 19,5 14,3 18,8 21,0 21 11 35 19 N 1017,3 26 0 0,0
08.08.2020 01:00:00 20,4 13,6 19,5 21,1 19 10 36 20 N 1017,2 51 0 0,0
08.08.2020 00:00:00 21,3 13,0 20,5 21,1 21 11 41 22 N 1016,7 59 0 -
07.08.2020 23:00:00 22,5 14,6 21,6 21,1 16 9 32 17 N 1016,6 59 0 0,0
07.08.2020 22:00:00 24,2 16,5 23,4 21,0 16 9 32 17 N 1015,9 54 1 0,0
07.08.2020 21:00:00 27,2 18,5 25,1 21,0 14 7 26 14 NNW 1015,2 49 32 0,0
07.08.2020 20:00:00 27,0 17,5 26,7 20,9 9 5 11 6 W 1014,9 20 5 0,0
07.08.2020 19:00:00 30,7 17,4 31,2 20,7 6 3 8 5 N 1015,0 45 32 0,0
07.08.2020 18:00:00 27,1 14,5 28,9 20,5 3 2 17 9 W 1015,3 20 0 0,0
07.08.2020 17:00:00 27,2 14,2 32,2 20,3 13 7 23 12 WSW 1015,7 42 6 0,0
07.08.2020 16:00:00 28,8 13,9 34,7 20,1 18 10 25 13 WSW 1015,8 28 45 0,0
07.08.2020 15:00:00 29,6 15,7 38,3 19,9 16 9 27 15 WSW 1015,7 20 57 0,0
07.08.2020 14:00:00 32,5 13,7 38,6 19,8 7 4 22 12 W 1015,3 55 48 0,0
07.08.2020 13:00:00 30,7 14,8 34,3 19,7 12 6 24 13 ENE 1015,1 59 42 0,0
07.08.2020 12:00:00 29,0 15,2 31,0 19,7 9 5 18 10 NE 1015,7 52 60 0,0

tt = Température de l'air
td = dewpoint
tt 5cm = Température de l'air 5cm
tt -20cm = Température de l'air -20cm
ff = Vitesse du vent
fx = gusts
dd = Direction du vent
ppp = reduced air pressure
vv = visibility
sd = Ensoleillement
rr = Quantités de précipitations

stations d'obs. à proximité